This demonstration page uses our WeatherBlox Daily Observations layout. Learn more.

Left ArrowRight Arrow

39.51506, -84.39828

Hourly Observations for October 26, 2021

Temp ( °F °C ) Dew Point ( °F °C ) Humidity (%) Winds ( mph kmh ) Pressure ( in mb ) Visibility ( mi km ) Precip ( " mm )
12:15 am 00:15 Cloudy 50 9.8 49 9.2 96 96 N 9 15 29.91 1013 10 16 N/A
12:35 am 00:35 Cloudy 50 10 48 8.9 93 93 N 8 13 29.91 1013 10 16 N/A
12:55 am 00:55 Cloudy with Mist and Fog 49 9.6 49 9.5 99 99 N 9 15 29.92 1013 7 11 N/A
1:15 am 01:15 Cloudy 49 9.6 48 8.8 95 95 NNW 8 13 29.93 1014 10 16 N/A
1:35 am 01:35 Cloudy 49 9.3 47 8.5 95 95 N 9 15 29.93 1014 10 16 N/A
1:55 am 01:55 Cloudy 49 9.2 46 7.9 92 92 N 12 19 29.93 1014 10 16 N/A
2:15 am 02:15 Cloudy 49 9.3 44 6.7 84 84 N 10 17 29.94 1014 10 16 N/A
2:35 am 02:35 Cloudy 49 9.2 45 7 86 86 N 8 13 29.95 1014 10 16 N/A
2:55 am 02:55 Cloudy 49 9.2 44 6.9 86 86 N 12 19 29.95 1014 10 16 N/A
3:15 am 03:15 Cloudy 49 9.2 44 6.7 85 85 N 9 15 29.96 1015 10 16 N/A
3:35 am 03:35 Cloudy 49 9.2 44 6.5 83 83 N 9 15 29.97 1015 10 16 N/A
3:55 am 03:55 Cloudy 48 9.1 42 5.8 80 80 NNE 16 26 29.97 1015 10 16 N/A
4:15 am 04:15 Cloudy 48 9 43 5.9 81 81 N 9 15 29.98 1015 10 16 N/A
4:35 am 04:35 Cloudy 48 8.9 42 5.8 81 81 N 13 20 29.99 1016 10 16 N/A
4:55 am 04:55 Cloudy 48 8.9 42 5.8 81 81 N 10 17 30.00 1016 10 16 N/A
5:15 am 05:15 Cloudy 48 8.9 43 6 82 82 N 9 15 30.00 1016 10 16 N/A
5:35 am 05:35 Cloudy 48 8.8 42 5.6 81 81 NNE 10 17 30.00 1016 10 16 N/A
5:55 am 05:55 Cloudy 48 8.8 41 5.1 78 78 N 9 15 30.01 1016 10 16 N/A
6:15 am 06:15 Cloudy 48 8.7 40 4.7 76 76 N 8 13 30.01 1016 10 16 N/A
6:35 am 06:35 Cloudy 47 8.6 40 4.2 74 74 N 12 19 30.01 1016 10 16 N/A
6:55 am 06:55 Cloudy 48 8.7 40 4.4 75 75 N 9 15 30.02 1017 10 16 N/A
7:15 am 07:15 Cloudy 47 8.6 40 4.4 75 75 N 8 13 30.03 1017 10 16 N/A
7:35 am 07:35 Cloudy 47 8.6 40 4.7 77 77 NNW 7 11 30.03 1017 10 16 N/A
7:55 am 07:55 Cloudy 47 8.5 41 5 79 79 NNW 7 11 30.04 1017 10 16 N/A
8:15 am 08:15 Cloudy 47 8.5 41 5.2 80 80 N 10 17 30.04 1017 10 16 N/A
8:35 am 08:35 Cloudy 47 8.3 41 5 80 80 NNW 10 17 30.04 1017 10 16 N/A
8:55 am 08:55 Partly Cloudy 46 7.9 41 5 82 82 N 8 13 30.05 1018 10 16 N/A
9:15 am 09:15 Sunny 46 8 41 5.1 82 82 N 8 13 30.06 1018 10 16 N/A
9:35 am 09:35 Partly Cloudy 48 8.8 42 5.4 79 79 N 8 13 30.06 1018 10 16 N/A
9:55 am 09:55 Partly Cloudy 48 9.1 42 5.4 78 78 N 7 11 30.06 1018 10 16 N/A
10:15 am 10:15 Mostly Cloudy 48 9 42 5.4 78 78 N 10 17 30.06 1018 10 16 N/A
10:35 am 10:35 Mostly Cloudy 49 9.2 41 5.2 76 76 N 8 13 30.06 1018 10 16 N/A
10:55 am 10:55 Cloudy 49 9.5 41 5.2 75 75 N 10 17 30.07 1018 10 16 N/A
11:15 am 11:15 Mostly Cloudy 49 9.6 41 5.1 74 74 NNE 12 19 30.07 1018 10 16 N/A
11:35 am 11:35 Mostly Cloudy 51 10.6 41 5.2 70 70 N 12 19 30.07 1018 10 16 N/A
11:55 am 11:55 Mostly Cloudy 53 11.4 42 5.3 66 66 NNE 13 20 30.07 1018 10 16 N/A
12:15 pm 12:15 Mostly Cloudy 52 11 40 4.4 64 64 N 12 19 30.06 1018 10 16 N/A
12:35 pm 12:35 Mostly Cloudy 53 11.4 40 4.3 62 62 N 12 19 30.06 1018 10 16 N/A
12:55 pm 12:55 Partly Cloudy 54 12.1 40 4.4 60 60 NNW 10 17 30.05 1018 10 16 N/A
1:15 pm 13:15 Partly Cloudy 54 12.2 39 4.1 58 58 N 12 19 30.04 1017 10 16 N/A
1:35 pm 13:35 Partly Cloudy 54 12.1 38 3.5 56 56 NNE 9 15 30.03 1017 10 16 N/A
1:55 pm 13:55 Partly Cloudy 56 13.1 39 4.1 55 55 NNE 12 19 30.02 1017 10 16 N/A
2:15 pm 14:15 Sunny 55 12.9 35 1.9 47 47 NNE 13 20 30.02 1017 10 16 N/A
2:35 pm 14:35 Partly Cloudy 55 12.6 36 2 49 49 NW 9 15 30.01 1016 10 16 N/A
2:55 pm 14:55 Partly Cloudy 55 13 37 2.6 50 50 N 8 13 30.01 1016 10 16 N/A
3:15 pm 15:15 Partly Cloudy 56 13.3 35 1.7 46 46 N 10 17 30.01 1016 10 16 N/A
3:35 pm 15:35 Sunny 56 13.6 35 1.7 45 45 NNW 10 17 30.01 1016 10 16 N/A
3:55 pm 15:55 Sunny 55 13 34 1.1 45 45 NW 8 13 30.01 1016 10 16 N/A
4:15 pm 16:15 Sunny 56 13.4 35 1.6 45 45 N 9 15 30.00 1016 10 16 N/A
4:35 pm 16:35 Sunny 56 13.5 35 1.7 45 45 N 8 13 30.00 1016 10 16 N/A
4:55 pm 16:55 Sunny 56 13.3 33 0.8 43 43 NNW 7 11 30.00 1016 10 16 N/A
5:15 pm 17:15 Sunny 56 13.1 33 0.5 42 42 N 7 11 30.01 1016 10 16 N/A
5:35 pm 17:35 Sunny 55 12.9 33 0.8 44 44 NNW 9 15 30.01 1016 10 16 N/A
5:55 pm 17:55 Sunny 54 12.4 33 0.4 44 44 NNW 7 11 30.01 1016 10 16 N/A
6:15 pm 18:15 Sunny 53 11.8 33 0.6 46 46 NNW 7 11 30.01 1016 10 16 N/A
6:35 pm 18:35 Sunny 51 10.8 33 0.6 50 50 NNW 5 7 30.02 1016 10 16 N/A
6:55 pm 18:55 Clear 49 9.7 35 1.4 57 57 N 3 6 30.02 1017 10 16 N/A
7:15 pm 19:15 Clear 46 7.8 38 3.6 75 75 NNW 5 7 30.02 1017 10 16 N/A
7:35 pm 19:35 Clear 46 7.8 39 4.1 78 78 NNW 5 7 30.03 1017 10 16 N/A
7:55 pm 19:55 Clear 43 6.3 40 4.5 88 88 N 3 6 30.04 1017 10 16 N/A
8:15 pm 20:15 Clear 42 5.8 39 4.1 89 89 N 5 7 30.04 1017 10 16 N/A
8:35 pm 20:35 Clear 40 4.6 38 3.6 93 93 N 3 6 30.05 1018 10 16 N/A
8:55 pm 20:55 Clear 40 4.2 38 3.3 94 94 N 3 6 30.05 1018 10 16 N/A
9:15 pm 21:15 Clear 41 4.8 39 4 95 95 N N/A 30.06 1018 10 16 N/A
9:35 pm 21:35 Clear 41 5.1 39 4 93 93 N N/A 30.06 1018 10 16 N/A
9:55 pm 21:55 Clear 40 4.5 39 3.8 95 95 N N/A 30.06 1018 10 16 N/A
10:15 pm 22:15 Clear 40 4.4 38 3.6 95 95 N N/A 30.06 1018 10 16 N/A
10:35 pm 22:35 Clear 39 3.8 37 2.6 92 92 NE 3 6 30.07 1018 10 16 N/A
10:55 pm 22:55 Clear 38 3.5 36 2.2 91 91 N N/A 30.07 1018 10 16 N/A
11:15 pm 23:15 Clear 37 3 35 1.8 92 92 N N/A 30.07 1018 10 16 N/A
11:35 pm 23:35 Clear 38 3.5 35 1.9 89 89 NNW 3 6 30.06 1018 10 16 N/A
11:55 pm 23:55 Clear 39 4 37 2.8 92 92 N N/A 30.06 1018 10 16 N/A

Powered by AerisWeather